This demonstration page uses our WeatherBlox Daily Observations layout. Learn more.

Left ArrowRight Arrow

Hourly Observations for October 23, 2019

Temp ( °F °C ) Dew Point ( °F °C ) Humidity (%) Winds ( mph kmh ) Pressure ( in mb ) Visibility ( mi km ) Precip ( " mm )
12:53 am 00:53 Clear 40 4.4 38 3.3 93 93 Calm 29.96 1015 10 16 0.00 0.00
1:53 am 01:53 Clear 44 6.7 40 4.4 85 85 W 6 9 29.97 1015 10 16 0.00 0.00
2:53 am 02:53 Clear 45 7.2 39 3.9 80 80 WSW 5 7 29.99 1016 10 16 0.00 0.00
3:53 am 03:53 Clear 45 7.2 37 2.8 74 74 WSW 6 9 30.00 1016 10 16 0.00 0.00
4:53 am 04:53 Clear 44 6.7 37 2.8 76 76 W 3 6 30.02 1017 10 16 0.00 0.00
5:53 am 05:53 Clear 38 3.3 34 1.1 86 86 Calm 30.04 1017 10 16 0.00 0.00
6:53 am 06:53 Clear 35 1.7 32 0 89 89 Calm 30.07 1018 10 16 0.00 0.00
7:53 am 07:53 Clear 35 1.7 32 0 89 89 WSW 3 6 30.08 1019 10 16 0.00 0.00
8:53 am 08:53 Sunny 43 6.1 35 1.7 74 74 WSW 3 6 30.11 1020 10 16 0.00 0.00
9:53 am 09:53 Sunny 48 8.9 34 1.1 58 58 WSW 5 7 30.13 1020 10 16 0.00 0.00
10:53 am 10:53 Sunny 53 11.7 33 0.6 47 47 SW 6 9 30.15 1021 10 16 0.00 0.00
11:53 am 11:53 Sunny 59 15 30 -1.1 33 33 SW 8 13 30.15 1021 10 16 0.00 0.00
12:53 pm 12:53 Sunny 61 16.1 31 -0.6 32 32 SW 9 15 30.15 1021 10 16 0.00 0.00
1:53 pm 13:53 Sunny 63 17.2 31 -0.6 30 30 WSW 9 15 30.13 1020 10 16 0.00 0.00
2:53 pm 14:53 Sunny 65 18.3 31 -0.6 28 28 SW 14 22 30.12 1020 10 16 0.00 0.00
3:53 pm 15:53 Sunny 66 18.9 31 -0.6 27 27 VRB 7 11 30.10 1019 10 16 0.00 0.00
4:53 pm 16:53 Sunny 66 18.9 30 -1.1 26 26 SSW 8 13 30.10 1019 10 16 0.00 0.00
5:53 pm 17:53 Sunny 64 17.8 31 -0.6 29 29 VRB 6 9 30.10 1019 10 16 0.00 0.00
6:53 pm 18:53 Clear 59 15 32 0 36 36 VRB 3 6 30.12 1020 10 16 0.00 0.00
7:53 pm 19:53 Clear 56 13.3 33 0.6 42 42 S 5 7 30.14 1021 10 16 0.00 0.00
8:53 pm 20:53 Clear 54 12.2 34 1.1 47 47 S 3 6 30.15 1021 10 16 0.00 0.00
9:53 pm 21:53 Clear 55 12.8 33 0.6 44 44 VRB 3 6 30.15 1021 10 16 0.00 0.00
10:53 pm 22:53 Clear 56 13.3 33 0.6 42 42 VRB 5 7 30.14 1021 10 16 0.00 0.00
11:53 pm 23:53 Clear 55 12.8 33 0.6 44 44 SSW 3 6 30.14 1021 10 16 0.00 0.00

Powered by AerisWeather